This demonstration page uses our WeatherBlox Daily Observations layout. Learn more.

Left ArrowRight Arrow

39.51506, -84.39828

Hourly Observations for March 7, 2015

Temp ( °F °C ) Dew Point ( °F °C ) Humidity (%) Winds ( mph kmh ) Pressure ( in mb ) Visibility ( mi km ) Precip ( " mm )
12:15 am 00:15 Clear 23 -5 13 -10.7 65 65 SSW 5 7 30.42 1030 10 16 N/A
12:35 am 00:35 Clear 23 -5 13 -10.5 66 66 SW 6 9 30.42 1030 10 16 N/A
12:55 am 00:55 Clear 23 -5.1 13 -10.5 66 66 SW 6 9 30.39 1029 10 16 N/A
1:15 am 01:15 Clear 22 -5.3 13 -10.3 68 68 SW 5 7 30.39 1029 10 16 N/A
1:35 am 01:35 Clear 23 -5.2 14 -10 69 69 SW 8 13 30.39 1029 10 16 N/A
1:55 am 01:55 Clear 23 -5 14 -10 68 68 SW 9 15 30.39 1029 10 16 N/A
2:15 am 02:15 Clear 24 -4.5 15 -9.7 67 67 SW 9 15 30.36 1028 10 16 N/A
2:35 am 02:35 Clear 24 -4.7 14 -10.1 66 66 SSW 8 13 30.39 1029 10 16 N/A
2:55 am 02:55 Clear 24 -4.3 14 -9.8 66 66 SSW 9 15 30.33 1027 10 16 N/A
3:15 am 03:15 Clear 24 -4.2 14 -10 64 64 SSW 9 15 30.33 1027 10 16 N/A
3:35 am 03:35 Clear 24 -4.2 14 -10 64 64 SSW 8 13 30.33 1027 10 16 N/A
3:55 am 03:55 Clear 24 -4.2 14 -10.2 63 63 SSW 9 15 30.33 1027 10 16 N/A
4:15 am 04:15 Clear 23 -4.9 13 -10.7 64 64 SSW 8 13 30.36 1028 10 16 N/A
4:35 am 04:35 Clear 24 -4.2 13 -10.5 62 62 SSW 9 15 30.30 1026 10 16 N/A
4:55 am 04:55 Clear 24 -4.2 13 -10.6 61 61 SSW 10 17 30.30 1026 10 16 N/A
5:15 am 05:15 Clear 24 -4.2 13 -10.5 62 62 SSW 12 19 30.30 1026 10 16 N/A
5:35 am 05:35 Clear 24 -4.2 13 -10.6 61 61 SSW 10 17 30.30 1026 10 16 N/A
5:55 am 05:55 Clear 24 -4.2 13 -10.6 61 61 SSW 10 17 30.30 1026 10 16 N/A
6:15 am 06:15 Clear 24 -4.2 13 -10.8 60 60 SSW 9 15 30.30 1026 10 16 N/A
6:35 am 06:35 Clear 24 -4.2 13 -10.7 61 61 SSW 8 13 30.30 1026 10 16 N/A
6:55 am 06:55 Clear 26 -3.5 13 -10.3 60 60 SSW 9 15 30.30 1026 10 16 N/A
7:15 am 07:15 Sunny 27 -2.8 15 -9.6 60 60 SSW 10 17 30.30 1026 10 16 N/A
7:35 am 07:35 Partly Cloudy 27 -2.8 14 -10 58 58 SSW 10 17 30.30 1026 10 16 N/A
7:55 am 07:55 Partly Cloudy 29 -1.5 17 -8.6 59 59 SSW 12 19 30.30 1026 10 16 N/A
8:15 am 08:15 Sunny 29 -1.5 16 -8.7 58 58 SW 13 20 30.30 1026 10 16 N/A
8:35 am 08:35 Sunny 29 -1.5 16 -8.9 57 57 SW 15 24 30.30 1026 10 16 N/A
8:55 am 08:55 Sunny 29 -1.5 15 -9.4 55 55 SW 15 24 30.30 1026 10 16 N/A
9:15 am 09:15 Sunny 31 -0.7 16 -8.9 54 54 SW 15 24 30.30 1026 10 16 N/A
9:35 am 09:35 Mostly Cloudy 32 undefined 17 -8.3 54 54 SW 16 26 30.30 1026 10 16 N/A
9:55 am 09:55 Cloudy 32 undefined 17 -8.4 54 54 SW 17 28 30.30 1026 10 16 N/A
10:15 am 10:15 Cloudy 34 1.2 19 -7 55 55 SW 15 24 30.27 1025 10 16 N/A
10:35 am 10:35 Cloudy 34 1.2 19 -7.2 54 54 SW 13 20 30.27 1025 10 16 N/A
10:55 am 10:55 Cloudy 34 1.2 19 -7.4 53 53 SW 16 26 30.27 1025 10 16 N/A
11:15 am 11:15 Cloudy 36 2.3 20 -6.5 53 53 SW 13 20 30.27 1025 10 16 N/A
11:35 am 11:35 Cloudy 37 2.6 20 -6.7 51 51 SW 18 30 30.27 1025 10 16 N/A
11:55 am 11:55 Cloudy 39 3.9 21 -6 49 49 SW 15 24 30.24 1024 10 16 N/A
12:15 pm 12:15 Partly Cloudy 39 4 21 -6.2 48 48 SW 16 26 30.24 1024 10 16 N/A
12:35 pm 12:35 Mostly Cloudy 40 4.7 22 -5.8 47 47 SW 15 24 30.24 1024 10 16 N/A
12:55 pm 12:55 Mostly Cloudy 42 5.5 22 -5.6 45 45 SW 10 17 30.21 1023 10 16 N/A
1:15 pm 13:15 Partly Cloudy 42 5.5 21 -6.1 43 43 SW 15 24 30.18 1022 10 16 N/A
1:35 pm 13:35 Sunny 43 6.1 22 -5.7 43 43 SSW 13 20 30.18 1022 10 16 N/A
1:55 pm 13:55 Sunny 44 6.7 22 -5.3 42 42 SSW 13 20 30.15 1021 10 16 N/A
2:15 pm 14:15 Mostly Cloudy 44 6.8 23 -4.8 44 44 SSW 12 19 30.15 1021 10 16 N/A
2:35 pm 14:35 Mostly Cloudy 46 7.9 25 -3.9 43 43 SW 13 20 30.12 1020 10 16 N/A
2:55 pm 14:55 Partly Cloudy 47 8.2 25 -4.1 42 42 SSW 14 22 30.12 1020 10 16 N/A
3:15 pm 15:15 Sunny 49 9.5 27 -2.9 42 42 SSW 15 24 30.09 1019 10 16 N/A
3:35 pm 15:35 Sunny 49 9.6 28 -2.5 43 43 SW 12 19 30.12 1020 10 16 N/A
3:55 pm 15:55 Sunny 49 9.6 27 -2.6 43 43 SSW 12 19 30.12 1020 10 16 N/A
4:15 pm 16:15 Sunny 49 9.6 26 -3.5 40 40 SW 17 28 30.09 1019 10 16 N/A
4:35 pm 16:35 Sunny 49 9.6 27 -2.8 42 42 SW 15 24 30.09 1019 10 16 N/A
5:00 pm 17:00 Sunny 49 9.6 27 -2.6 43 43 SW 13 20 30.09 1019 10 16 N/A
5:15 pm 17:15 Sunny 49 9.6 28 -2.1 44 44 WSW 13 20 30.12 1020 10 16 N/A
5:35 pm 17:35 Sunny 49 9.6 25 -3.8 39 39 WSW 13 20 30.12 1020 10 16 N/A
5:55 pm 17:55 Sunny 49 9.6 26 -3.1 41 41 SW 16 26 30.12 1020 10 16 N/A
6:15 pm 18:15 Sunny 47 8.2 26 -3.6 43 43 WSW 12 19 30.12 1020 10 16 N/A
6:35 pm 18:35 Partly Cloudy 47 8.2 27 -3 45 45 WSW 8 13 30.12 1020 10 16 N/A
6:55 pm 18:55 Partly Cloudy 43 6.1 26 -3.6 50 50 SW 10 17 30.12 1020 10 16 N/A
7:15 pm 19:15 Partly Cloudy 42 5.7 26 -3.6 52 52 SW 8 13 30.12 1020 10 16 N/A
7:35 pm 19:35 Clear 42 5.8 26 -3.5 52 52 WSW 10 17 30.12 1020 10 16 N/A
7:55 pm 19:55 Clear 43 6.2 25 -3.7 49 49 WSW 10 17 30.15 1021 10 16 N/A
8:15 pm 20:15 Clear 42 5.7 26 -3.5 52 52 WSW 8 13 30.15 1021 10 16 N/A
8:35 pm 20:35 Clear 42 5.5 26 -3.6 52 52 WSW 8 13 30.15 1021 10 16 N/A
8:55 pm 20:55 Clear 41 5 26 -3.3 55 55 WSW 7 11 30.15 1021 10 16 N/A
9:15 pm 21:15 Clear 40 4.7 26 -3.3 57 57 SW 6 9 30.15 1021 10 16 N/A
9:35 pm 21:35 Clear 40 4.5 26 -3.3 57 57 WSW 7 11 30.21 1023 10 16 N/A
9:55 pm 21:55 Clear 39 4 27 -2.7 62 62 SW 8 13 30.21 1023 10 16 N/A
10:15 pm 22:15 Clear 39 4 28 -2.2 64 64 WSW 5 7 30.21 1023 10 16 N/A
10:35 pm 22:35 Clear 38 3.6 27 -2.7 64 64 WSW 6 9 30.21 1023 10 16 N/A
10:55 pm 22:55 Clear 38 3.2 27 -3 64 64 SW 6 9 30.21 1023 10 16 N/A
11:15 pm 23:15 Clear 39 3.9 27 -2.7 62 62 WSW 7 11 30.21 1023 10 16 N/A
11:35 pm 23:35 Clear 39 4 28 -2.5 63 63 WSW 8 13 30.21 1023 10 16 N/A
11:55 pm 23:55 Clear 39 4 27 -2.6 62 62 WSW 9 15 30.21 1023 10 16 N/A

Powered by AerisWeather